Regional Weather Roundup
Issued by NWS

Home | Current Version | Previous Version | Text Only | Print | Product List | Glossary Off
Versions: 1 2 3 4 5 6 7 8 9 10 11 12 13 14 15 16 17 18 19 20 21 22 23 24 25 26 27 28 29 30 31 32 33 34 35 36 37 38 39 40 41 42 43 44 45 46 47 48 49 50

713
ASUS45 KBOU 040807
RWRCO

WEATHER ROUNDUP FOR COLORADO
NATIONAL WEATHER SERVICE DENVER/BOULDER CO
200 AM MDT WED MAY 04 2016

NOTE: "FAIR" INDICATES FEW OR NO CLOUDS BELOW 12000 FEET WITH NO
SIGNIFICANT WEATHER AND/OR OBSTRUCTIONS TO VISIBILITY.

COZ001>005-013-030-031-040900-
...NORTHWEST COLORADO...

CITY           SKY/WX    TMP DP  RH WIND       PRES   REMARKS
CRAIG          FAIR      36  31  82 CALM      30.30R
HAYDEN         FAIR      45  28  53 E12       30.31R
MEEKER         FAIR      41  29  62 E9        30.30S
MOUNT WERNER   NOT AVBL
STEAMBOAT SPGS FAIR      40  30  67 CALM      30.33S
WALDEN         FAIR      30  25  80 SE6       30.39S WCI  24
$$

COZ006>008-011-040900-
...WEST CENTRAL VALLEYS...

CITY           SKY/WX    TMP DP  RH WIND       PRES   REMARKS
GRAND JUNCTION FAIR      49  35  58 NE3       30.20R
MONTROSE       FAIR      50  28  42 SE13      30.28R
EAGLE          FAIR      39  28  65 E5        30.36R
RIFLE          FAIR      44  32  62 S6        30.27R
DELTA          NOT AVBL
NUCLA          NOT AVBL
$$

COZ017>023-064>068-040900-
...SOUTHWEST COLORADO...

CITY           SKY/WX    TMP DP  RH WIND       PRES   REMARKS
DURANGO        FAIR      41  35  79 N3        30.32R
CORTEZ         FAIR      39  31  72 E3        30.28S
PAGOSA SPRINGS FAIR      38  30  74 CALM      30.38S
TELLURIDE      FAIR      40  27  59 SE5       30.44S
WOLF CREEK PAS FAIR      30  23  74 SW15      30.56S WCI  19
$$

COZ009-010-012-014-032>034-037-058>063-040900-
...CENTRAL COLORADO...

CITY           SKY/WX    TMP DP  RH WIND       PRES   REMARKS
ASPEN          FAIR      39  24  55 SW10      30.35S
BUENA VISTA    FAIR      35  24  66 NW6       30.40S WCI  30
COPPER MTN     NOT AVBL
BERTHOUD PASS  FAIR      28  19  69 N17       30.53F WCI  16
COTTONWOOD PAS FAIR      43   9  24 W5        30.45F
GUNNISON       FAIR      34  25  69 CALM      30.41R
KREMMLING      FAIR      32  27  80 CALM      30.39S
LEADVILLE      FAIR      28  15  58 NW3       30.45R
MONARCH PASS   FAIR      32  10  40 W6        30.64S WCI  26
SALIDA         FAIR      38  25  59 W7        30.46S
SUNLIGHT       FAIR      37  21  52 NE3       30.52S
WILKERSON PASS FAIR      32  18  55 W3        30.52F
$$

COZ069>075-040900-
...SAN LUIS VALLEY/SANGRE DE CRISTO MOUNTAINS...

CITY           SKY/WX    TMP DP  RH WIND       PRES   REMARKS
ALAMOSA        FAIR      35  26  69 S3        30.35S
LA VETA PASS   FAIR      34  21  60 CALM      30.46S
SAGUACHE       FAIR      36  25  64 N9        30.38S
$$

COZ035-036-038>040-040900-
...NORTHERN COLORADO FRONT RANGE...

CITY           SKY/WX    TMP DP  RH WIND       PRES   REMARKS
DENVER INTL AP FAIR      46  30  53 SW13      30.26S
DMNS CITY PARK   N/A     48  29  47 SE6       30.26F
AURORA         FAIR      44  31  61 S6        30.28S
FRONT RANGE AP NOT AVBL
ERIE MUNI ARPT FAIR      41  36  81 CALM      30.25F
BOULDER MUN AP FAIR      50  30  46 CALM      30.25S
CENTENNIAL     FAIR      42  30  62 CALM      30.28F
BROOMFIELD     FAIR      46  32  57 CALM      30.27S
FORT COLLINS   FAIR      46  36  66 N5        30.25F
LONGMONT       FAIR      47  34  59 W7        30.27S
$$

COZ041-046-047-076>085-087-088-040900-
...PIKES PEAK/PALMER DIVIDE AND SOUTHERN FOOTHILLS...

CITY           SKY/WX    TMP DP  RH WIND       PRES   REMARKS
COLO. SPRINGS  FAIR      42  28  57 N6        30.31F
A. F. ACADEMY  FAIR      36  27  69 N9        30.31F
SCHRIEVER AFB  NOT AVBL
ELLICOTT       FAIR     N/A N/A N/A CALM      30.29S
FALCON         FAIR      43  29  57 NW7       30.33F
FORT CARSON    FAIR      44  29  55 NW10      30.28F
LIMON          FAIR      39  34  82 NW6       30.25F
MONUMENT HILL  FAIR      39  28  65 W6        30.34F
TRINIDAD       FAIR      43  29  57 W15       30.29S
$$

COZ042>045-048>051-090-091-040900-
...NORTHEAST COLORADO...

CITY           SKY/WX    TMP DP  RH WIND       PRES   REMARKS
GREELEY ARPT   FAIR      39  34  81 NW7       30.24S
AKRON          FAIR      44  34  67 SW7       30.20F
BURLINGTON     FAIR      41  34  76 W12       30.18S
WRAY           NOT AVBL
STERLING       FAIR      37  36  93 S3        30.18F
HOLYOKE        NOT AVBL
FORT MORGAN    FAIR      43  36  78 W10       30.21F
$$

COZ086-089-092>099-040900-
...SOUTHEAST COLORADO...

CITY           SKY/WX    TMP DP  RH WIND       PRES   REMARKS
PUEBLO         FAIR      44  35  70 W7        30.25S
LA JUNTA       FAIR      46  38  73 W13       30.21F
LAMAR          FAIR      47  38  71 SW7       30.17S
SPRINGFIELD      N/A     42  33  70 W6        30.20S
$$




USA.gov is the U.S. government's official web portal to all federal, state and local government web resources and services.